Harlan, KY

7:44 PM EDT on September 20, 2019 (GMT -0400)
Harlan

Weather History for KI35 - August, 2019

Change the Weather History Date:

Wednesday, August 21, 2019

  Actual Average (KLOZ) Record (KLOZ)
Temperature  
Mean Temperature 77 °F -  
Max Temperature 90 °F 85 °F 100 °F (1983)
Min Temperature 65 °F 63 °F 51 °F (1956)
Cooling Degree Days 12    
Growing Degree Days 27 (Base 50)    
Moisture  
Dew Point 68 °F    
Average Humidity 80    
Maximum Humidity 100    
Minimum Humidity 46    
Precipitation  
Precipitation 0.00 in - - ()
Sea Level Pressure  
Sea Level Pressure 30.09 in    
Wind  
Wind Speed 2 mph ()    
Max Wind Speed 9 mph    
Max Gust Speed 17 mph    
Visibility 7.1 miles    
Events      
Averages and records for this station are not official NWS values.
T = Trace of Precipitation, MM = Missing Value Source: Averaged Metar Reports

Daily Weather History Graph

Daily Weather History Graph

Search for Another Location

Airport or City:

Astronomy

Aug. 21, 2019 Rise Set
Actual Time 6:55 AM EDT 8:17 PM EDT
Civil Twilight 6:28 AM EDT 8:44 PM EDT
Nautical Twilight 5:55 AM EDT 9:16 PM EDT
Astronomical Twilight 5:21 AM EDT 9:50 PM EDT
Moon 11:43 PM EDT (8/21) 12:21 PM EDT (8/21)
Length of Visible Light 14h 16m
Length of Day
13h 22m
Waning Gibbous, 69% of the Moon is Illuminated
Aug 21
Waning Gibbous
Aug 23
Last Quarter
Aug 30
New
Sep 5
First Quarter
Sep 14
Full

Hourly Weather History & Observations

Time (EDT) Temp. Heat Index Dew Point Humidity Pressure Visibility Wind Dir Wind Speed Gust Speed Precip Events Conditions
12:15 AM 67.5 °F - 67.3 °F 99% 30.10 in 7.0 mi Calm Calm - N/A   Mostly Cloudy
12:35 AM 67.1 °F - 66.7 °F 99% 30.09 in 0.5 mi Calm Calm - N/A   Overcast
12:55 AM 67.1 °F - 66.7 °F 99% 30.09 in 4.0 mi Calm Calm - N/A   Mostly Cloudy
1:15 AM 66.9 °F - 66.6 °F 99% 30.09 in 1.5 mi Calm Calm - N/A   Overcast
1:35 AM 66.7 °F - 66.6 °F 99% 30.09 in 4.0 mi ENE 3.5 mph - N/A   Overcast
1:55 AM 67.1 °F - 66.7 °F 99% 30.10 in 2.0 mi ENE 3.5 mph - N/A   Overcast
2:15 AM 66.7 °F - 66.6 °F 99% 30.10 in 5.0 mi Calm Calm - N/A   Mostly Cloudy
2:35 AM 66.6 °F - 66.4 °F 99% 30.10 in 5.0 mi Calm Calm - N/A   Scattered Clouds
2:55 AM 66.4 °F - 66.2 °F 99% 30.10 in 4.0 mi Calm Calm - N/A   Scattered Clouds
3:15 AM 66.6 °F - 66.4 °F 99% 30.10 in 4.0 mi Calm Calm - N/A   Mostly Cloudy
3:35 AM 66.6 °F - 66.4 °F 99% 30.11 in 4.0 mi Calm Calm - N/A   Overcast
3:55 AM 66.4 °F - 66.2 °F 99% 30.11 in 5.0 mi Calm Calm - N/A   Overcast
4:15 AM 66.2 °F - 66.2 °F 100% 30.10 in 4.0 mi Calm Calm - N/A   Mostly Cloudy
4:35 AM 66.2 °F - 66.0 °F 99% 30.10 in 3.0 mi Calm Calm - N/A   Overcast
4:55 AM 66.6 °F - 66.2 °F 99% 30.10 in 7.0 mi Calm Calm - N/A   Overcast
5:15 AM 66.6 °F - 66.4 °F 99% 30.11 in 4.0 mi Calm Calm - N/A   Overcast
5:35 AM 66.7 °F - 66.4 °F 99% 30.11 in 5.0 mi Calm Calm - N/A   Overcast
5:55 AM 66.4 °F - 66.2 °F 99% 30.11 in 5.0 mi Calm Calm - N/A   Overcast
6:15 AM 66.6 °F - 66.2 °F 99% 30.11 in 5.0 mi Calm Calm - N/A   Overcast
6:35 AM 66.7 °F - 66.6 °F 99% 30.11 in 3.0 mi Calm Calm - N/A   Overcast
6:55 AM 66.4 °F - 66.2 °F 99% 30.12 in 1.2 mi Calm Calm - N/A   Overcast
7:15 AM 66.4 °F - 66.2 °F 99% 30.12 in 0.5 mi Calm Calm - N/A   Overcast
7:35 AM 66.2 °F - 66.2 °F 100% 30.12 in 0.2 mi Calm Calm - N/A   Overcast
7:55 AM 65.8 °F - 65.7 °F 99% 30.12 in 0.2 mi Calm Calm - N/A   Overcast
8:15 AM 66.4 °F - 66.2 °F 99% 30.12 in 0.2 mi Calm Calm - N/A   Overcast
8:35 AM 66.4 °F - 66.2 °F 99% 30.12 in 0.5 mi Calm Calm - N/A   Overcast
8:55 AM 66.9 °F - 66.6 °F 99% 30.12 in 1.5 mi East 3.5 mph - N/A   Overcast
9:15 AM 67.5 °F - 66.9 °F 98% 30.12 in 1.8 mi Calm Calm - N/A   Overcast
9:35 AM 67.5 °F - 66.7 °F 98% 30.12 in 4.0 mi Calm Calm - N/A   Overcast
9:55 AM 69.6 °F - 67.5 °F 93% 30.12 in 10.0 mi Calm Calm - N/A   Overcast
10:15 AM 70.3 °F - 67.6 °F 91% 30.12 in 10.0 mi Calm Calm - N/A   Mostly Cloudy
10:35 AM 72.9 °F - 68.2 °F 85% 30.12 in 10.0 mi Calm Calm - N/A   Scattered Clouds
10:55 AM 74.1 °F - 69.1 °F 84% 30.12 in 10.0 mi Calm Calm - N/A   Clear
11:15 AM 76.5 °F - 69.6 °F 79% 30.12 in 10.0 mi Calm Calm - N/A   Clear
11:35 AM 79.2 °F - 70.0 °F 73% 30.12 in 10.0 mi WSW 6.9 mph - N/A   Clear
11:55 AM 81.0 °F 84.6 °F 70.5 °F 70% 30.12 in 10.0 mi SSW 5.8 mph - N/A   Clear
12:15 PM 81.5 °F 85.5 °F 70.7 °F 70% 30.12 in 10.0 mi SW 8.1 mph - N/A   Clear
12:35 PM 82.4 °F 86.3 °F 69.8 °F 66% 30.12 in 10.0 mi SW 5.8 mph - N/A   Scattered Clouds
12:55 PM 83.8 °F 87.3 °F 68.7 °F 60% 30.11 in 10.0 mi SSW 6.9 mph - N/A   Scattered Clouds
1:15 PM 83.8 °F 87.3 °F 68.7 °F 60% 30.11 in 10.0 mi WSW 4.6 mph - N/A   Scattered Clouds
1:35 PM 85.6 °F 89.1 °F 68.5 °F 56% 30.10 in 10.0 mi WSW 3.5 mph - N/A   Clear
1:55 PM 85.8 °F 89.1 °F 68.2 °F 55% 30.10 in 10.0 mi West 8.1 mph 17.3 mph N/A   Scattered Clouds
2:15 PM 87.3 °F 91.6 °F 69.1 °F 55% 30.10 in 10.0 mi SW 5.8 mph - N/A   Scattered Clouds
2:35 PM 87.8 °F 91.1 °F 67.6 °F 51% 30.09 in 10.0 mi SW 5.8 mph - N/A   Scattered Clouds
2:55 PM 87.8 °F 90.7 °F 66.9 °F 50% 30.08 in 10.0 mi West 8.1 mph - N/A   Scattered Clouds
3:15 PM 88.2 °F 91.3 °F 67.1 °F 50% 30.08 in 10.0 mi WNW 8.1 mph - N/A   Clear
3:35 PM 88.5 °F 91.2 °F 66.6 °F 48% 30.07 in 10.0 mi WSW 6.9 mph - N/A   Scattered Clouds
3:55 PM 89.2 °F 91.6 °F 66.2 °F 46% 30.06 in 10.0 mi West 6.9 mph - N/A   Scattered Clouds
4:15 PM 88.7 °F 91.5 °F 66.6 °F 48% 30.06 in 10.0 mi WSW 9.2 mph - N/A   Scattered Clouds
4:35 PM 89.2 °F 92.0 °F 66.4 °F 47% 30.05 in 10.0 mi West 9.2 mph - N/A   Clear
4:55 PM 88.5 °F 91.2 °F 66.6 °F 48% 30.05 in 10.0 mi SW 6.9 mph - N/A   Scattered Clouds
5:15 PM 89.2 °F 92.0 °F 66.6 °F 47% 30.04 in 10.0 mi West 6.9 mph - N/A   Scattered Clouds
5:35 PM 89.1 °F 92.1 °F 66.7 °F 48% 30.04 in 10.0 mi SW 9.2 mph - N/A   Mostly Cloudy
5:55 PM 88.5 °F 91.6 °F 66.9 °F 49% 30.04 in 10.0 mi WSW 6.9 mph - N/A   Mostly Cloudy
6:15 PM 88.3 °F 91.6 °F 67.3 °F 50% 30.04 in 10.0 mi West 6.9 mph - N/A   Mostly Cloudy
6:35 PM 87.6 °F 90.8 °F 67.5 °F 51% 30.03 in 10.0 mi WSW 5.8 mph - N/A   Mostly Cloudy
6:55 PM 86.9 °F 90.3 °F 68.0 °F 53% 30.03 in 10.0 mi West 5.8 mph - N/A   Scattered Clouds
7:15 PM 86.7 °F 90.3 °F 68.4 °F 54% 30.03 in 10.0 mi West 4.6 mph - N/A   Scattered Clouds
7:35 PM 85.8 °F 89.7 °F 68.9 °F 57% 30.03 in 10.0 mi West 3.5 mph - N/A   Clear
7:55 PM 82.2 °F 86.0 °F 70.0 °F 66% 30.03 in 10.0 mi Calm Calm - N/A   Clear
8:15 PM 79.2 °F - 70.0 °F 73% 30.04 in 10.0 mi Calm Calm - N/A   Clear
8:35 PM 79.2 °F - 70.3 °F 74% 30.04 in 10.0 mi Calm Calm - N/A   Scattered Clouds
8:55 PM 77.4 °F - 70.7 °F 80% 30.04 in 10.0 mi Calm Calm - N/A   Mostly Cloudy
9:35 PM 74.8 °F - 70.9 °F 87% 30.06 in 10.0 mi Calm Calm - N/A   Mostly Cloudy
9:55 PM 74.5 °F - 70.7 °F 88% 30.07 in 10.0 mi Calm Calm - N/A   Scattered Clouds
10:15 PM 73.6 °F - 70.9 °F 91% 30.08 in 10.0 mi Calm Calm - N/A   Mostly Cloudy
10:35 PM 73.0 °F - 70.9 °F 93% 30.09 in 10.0 mi Calm Calm - N/A   Scattered Clouds
10:55 PM 72.1 °F - 70.7 °F 95% 30.09 in 10.0 mi Calm Calm - N/A   Clear
11:15 PM 71.8 °F - 70.7 °F 96% 30.09 in 10.0 mi Calm Calm - N/A   Clear
11:35 PM 71.2 °F - 70.3 °F 97% 30.09 in 7.0 mi Calm Calm - N/A   Clear